sat.trackr.live / text

‹ back to catalog

STARLINK-35882

NORAD 67088 · 2025-298P

PAYLOAD ACTIVE UNKNOWN

§ Identity

Operator
Country
US
Launch date
2025-12-14
Launch site
AFWTR
Launch vehicle
Mass (kg)
RCS (m²)

Purposes: comms

External: N2YO · Heavens-Above · Gunter

§ Orbital elements

Epoch: 2026-09-19T23:10:23.277216Z

Period
96.11 min
Inclination
69.9992°
Eccentricity
0.0003812
Mean motion
14.98336161 rev/d
Perigee alt
569.4 km
Apogee alt
574.7 km
Semi-major
6,950.2 km
B*
2.5346e-4
RAAN
244.7878°
Arg perigee
267.7939°
Mean anomaly
92.2783°
Rev number
4,231

§ Raw data

STARLINK-358821 67088U 25298P   26262.96554719  .00002933  00000+0  25346-3 0  99982 67088  69.9992 244.7878 0003812 267.7939  92.2783 14.98336161 42315

JSON: /api/v1/satellites/67088 · /tle

For live sub-satellite position, see the globe view (requires WebGL).

§ Visibility from observer

Set your observer location to see the next 7 days of passes ≥ 10°. The values pass through the URL so the page stays shareable.

No JS? Fill the form by hand. The geolocation button needs JavaScript.